Location: Eberbach
(49.4690°N, 8.9930°E)
Time: 18:36:27
(UTC+02:00)

ISS - Pass Details

Date: 29 September 2021
Orbit: 417 x 423 km, 51.6° (Epoch: 20 October)

Event Time Altitude Azimuth Distance (km) Brightness Sun altitude
Rises 21:51:25 0° 288° (WNW) 2,367 1.3 -26.6°
Reaches altitude 10° 21:53:38 10° 279° (W) 1,501 -0.1 -26.9°
Enters shadow 21:54:52 19° 266° (W) 1,065 -1.2 -27.1°
